Theta_e
279 279 278 278 278 278 278 278 277 277 277 276 276 276 276 275 275 274 274 275 275 276 277 278 277 278 277 277 277 277 277 276 274 277 280 282 282 283 285 287 289 290 293
279 279 279 279 278 278 277 278 277 276 276 276 276 275 275 274 274 273 273 274 274 275 276 277 276 276 276 276 275 275 276 277 276 273 276 278 280 283 283 284 286 289 290
278 279 278 278 277 277 277 277 277 276 275 275 275 274 273 273 272 273 273 274 275 275 276 275 275 275 275 274 274 275 276 276 276 274 275 278 280 280 280 283 284 286 287
278 277 277 277 277 277 277 277 276 276 274 273 273 272 272 272 272 272 274 274 275 275 275 275 274 274 273 273 274 275 275 275 276 275 276 276 277 278 279 278 279 282 283
277 277 277 278 277 277 276 276 276 275 275 273 272 271 271 271 272 273 274 274 274 274 274 274 274 274 274 275 275 274 275 275 276 275 273 273 273 274 274 277 277 278 280
276 276 277 277 277 276 276 276 275 275 274 274 272 271 269 270 272 274 275 274 274 273 272 272 273 273 274 275 275 277 278 276 274 273 272 271 272 274 275 276 276 274 274
274 276 277 277 276 276 276 275 274 273 273 272 272 271 268 268 271 274 275 274 273 270 270 271 272 273 272 272 274 276 277 277 276 274 271 272 272 274 275 274 274 274 275
276 276 276 276 275 276 274 274 273 273 272 271 269 267 265 265 271 273 274 273 270 269 269 269 269 269 270 272 274 274 273 273 274 274 273 273 275 276 274 274 274 275 277
275 275 275 275 274 274 273 272 272 271 269 268 267 265 263 264 269 272 273 271 270 269 269 269 268 269 272 276 274 271 271 271 273 275 276 275 274 275 275 273 272 273 273
273 274 273 272 273 273 273 271 270 268 268 267 266 265 263 262 267 271 273 271 270 269 268 268 272 273 276 277 274 271 267 268 270 269 267 267 269 269 272 272 272 270 271
271 271 271 271 271 272 271 269 268 266 266 263 263 263 262 261 261 270 273 272 270 270 270 270 271 274 276 277 276 270 269 272 268 264 264 265 266 267 268 269 270 270 269
268 268 269 269 270 271 269 268 266 265 264 262 261 262 263 262 264 269 273 274 274 272 271 272 271 275 276 275 273 272 272 270 263 262 262 262 263 264 265 266 268 270 272
265 265 266 267 268 269 267 266 265 264 264 263 263 262 263 263 264 269 272 273 274 273 273 273 276 274 273 270 270 270 267 263 262 260 260 261 262 263 264 265 268 270 271
262 263 265 264 264 263 266 266 265 263 262 262 262 262 262 262 264 266 267 269 271 272 273 271 270 270 269 268 264 265 263 262 261 260 260 261 262 262 262 265 266 267 267
261 262 263 264 262 263 264 264 265 265 265 263 263 263 261 261 265 269 270 270 271 273 272 264 263 263 262 262 262 262 262 261 260 260 259 259 259 260 261 264 264 265 266
259 262 263 264 264 263 263 264 269 271 272 273 273 271 267 270 273 274 275 275 275 275 265 260 261 260 260 260 259 260 260 260 260 259 258 258 258 259 260 262 263 264 264
257 259 261 262 263 263 262 262 262 265 270 271 272 273 274 274 274 274 274 274 274 273 261 259 259 258 258 258 258 258 258 259 259 258 257 257 258 258 259 260 261 262 263
255 256 258 260 261 261 261 262 262 260 260 261 264 267 269 271 271 272 272 272 263 261 257 257 256 256 256 256 257 256 257 257 257 256 256 256 256 257 258 259 260 260 261
254 256 257 258 259 259 260 260 259 258 257 257 259 261 264 267 268 269 270 263 259 258 258 255 255 255 255 255 255 255 254 254 255 255 255 255 256 256 257 258 259 259 260
254 256 256 256 256 257 257 257 257 257 257 256 256 258 260 256 256 257 259 257 255 255 256 254 255 254 254 253 254 253 253 254 254 255 255 255 255 256 257 257 258 258 259
254 254 254 255 255 255 255 255 256 257 257 257 258 260 263 257 258 258 259 257 256 255 255 254 254 254 254 253 252 252 252 253 254 254 254 254 254 254 257 258 258 259 259
253 255 254 254 255 255 255 256 256 256 256 256 257 258 265 264 262 259 259 258 257 255 255 254 253 254 254 253 253 253 253 253 254 254 253 253 253 254 256 257 257 258 259
255 254 253 254 254 254 254 255 255 256 256 256 257 257 258 258 258 257 257 256 255 254 254 252 252 252 253 252 253 253 253 253 254 254 252 252 252 254 256 256 257 258 259
253 253 254 254 254 254 254 254 255 256 257 257 257 257 257 257 257 256 255 254 253 253 253 252 251 252 253 252 253 253 253 253 253 252 251 251 251 254 255 256 257 258 258
254 253 253 253 254 254 254 254 255 256 256 257 256 256 256 256 255 255 255 254 254 253 252 251 251 252 251 251 252 252 252 255 255 255 253 251 251 253 255 256 257 258 258
255 255 255 255 255 255 255 255 255 256 256 256 256 256 256 256 256 255 255 254 254 253 252 251 251 251 251 252 253 254 254 258 258 258 257 255 254 256 257 257 257 258 258
Wind_Speed
6 6 6 6 6 6 6 5 5 4 3 2 3 4 5 6 7 7 7 7 8 8 8 9 10 11 8 8 8 9 9 10 14 14 13 15 19 19 19 19 18 18 17
6 6 6 5 6 6 6 6 5 5 4 3 2 3 4 5 6 7 7 7 9 9 10 10 11 9 11 11 9 12 11 12 12 22 16 14 17 18 20 22 18 16 17
5 5 4 4 5 7 7 6 6 5 4 3 3 3 3 4 6 6 6 8 8 8 9 10 11 11 11 11 11 11 11 11 11 14 17 13 14 14 17 17 18 17 15
5 5 5 4 5 6 6 6 6 6 5 5 4 3 3 4 6 6 7 8 8 8 9 9 10 10 12 13 12 14 13 13 13 13 14 15 14 16 14 16 16 15 16
6 5 5 4 4 4 5 6 6 7 6 5 5 4 3 4 4 6 7 8 8 8 8 9 9 10 16 15 10 12 14 12 12 12 14 15 15 15 16 14 17 17 19
5 6 4 4 4 5 5 6 7 7 7 6 6 5 5 4 9 11 10 6 7 7 9 9 9 10 11 18 20 21 19 13 17 14 14 16 16 16 16 16 17 17 20
4 4 4 5 5 5 5 5 7 8 7 8 7 6 5 5 10 12 12 6 5 5 7 9 9 8 11 12 18 23 17 22 22 17 17 15 19 18 20 20 20 19 18
5 4 5 5 6 5 5 7 7 5 8 6 5 5 5 5 11 12 12 4 4 6 7 8 9 10 11 14 14 11 13 13 15 13 16 17 17 20 20 19 21 21 19
4 5 5 5 5 6 8 8 6 5 5 5 4 5 5 6 11 12 11 5 6 7 7 8 9 9 15 22 13 12 14 14 17 25 27 30 33 32 26 15 14 14 16
5 6 5 5 7 8 9 7 4 4 6 5 5 5 5 6 11 12 10 5 7 6 6 8 13 10 21 20 12 12 12 15 16 17 18 17 19 19 25 14 13 13 13
6 6 6 7 8 9 6 4 4 5 4 5 5 4 5 5 8 13 13 7 6 7 6 4 6 16 19 21 22 9 13 19 17 13 12 12 13 13 12 11 12 12 13
6 8 9 9 7 6 6 4 3 4 5 5 4 5 5 5 9 12 14 15 14 7 7 6 7 17 18 21 18 21 23 19 9 10 11 11 13 13 13 14 17 15 14
8 8 8 8 8 6 5 4 3 4 4 4 4 5 5 4 5 13 15 15 14 9 6 12 20 15 16 14 17 21 14 8 9 10 11 12 11 14 17 16 16 17 18
9 10 8 7 8 4 3 3 4 4 4 5 5 6 5 5 5 6 6 7 11 10 14 5 6 10 13 13 8 10 8 8 9 10 10 12 12 12 13 12 14 14 15
9 9 8 6 6 5 5 5 5 4 6 5 6 5 5 6 7 11 11 8 7 10 4 1 2 4 7 7 7 8 8 8 9 8 10 11 12 12 13 12 12 13 12
9 7 7 7 5 5 5 5 12 17 17 18 18 13 8 18 17 18 17 18 19 18 2 1 3 5 6 7 8 8 8 9 8 9 9 10 11 12 13 13 12 11 13
8 10 8 7 6 6 5 5 7 5 13 16 17 19 20 19 18 18 18 20 17 15 1 2 5 6 7 7 7 8 9 8 9 8 9 10 11 11 14 13 12 12 13
7 9 7 7 7 7 6 6 5 5 6 7 8 12 15 16 17 19 19 16 3 2 2 4 5 5 6 7 7 7 8 8 8 8 9 9 10 11 12 12 12 13 14
7 7 7 7 7 7 7 7 6 6 7 8 6 9 9 15 15 17 18 4 3 3 5 5 6 5 6 6 7 7 8 8 8 8 8 8 9 9 11 11 12 17 17
7 10 9 7 7 7 7 8 7 7 8 7 7 7 4 2 3 4 5 4 4 5 6 6 6 5 5 5 6 6 7 7 7 7 8 8 8 9 10 12 11 13 13
7 8 8 7 7 7 7 8 8 8 8 8 8 7 14 7 7 7 6 5 6 6 6 6 6 6 5 5 5 6 6 7 7 7 7 7 8 9 9 10 11 12 12
7 8 6 7 8 8 8 8 8 8 9 9 8 8 18 10 6 5 6 6 5 5 5 5 6 6 6 5 5 6 7 7 7 7 7 7 7 8 9 9 11 11 12
8 9 9 8 8 9 8 8 8 9 9 9 8 7 6 7 7 7 7 6 5 5 5 5 6 6 5 5 6 6 7 8 7 6 7 7 7 8 8 9 11 11 12
8 9 10 10 9 9 9 9 9 11 10 9 8 7 7 7 7 7 7 6 5 6 6 5 6 8 6 5 6 6 7 7 6 7 8 7 7 8 8 9 10 13 11
9 9 9 10 10 10 10 9 9 9 9 8 8 7 7 7 7 7 7 6 6 5 7 6 6 7 8 9 10 10 9 13 11 10 6 7 8 10 9 8 10 11 12
9 9 9 9 10 10 9 10 10 9 9 8 7 7 8 7 7 7 6 5 6 6 7 6 7 9 9 8 10 11 11 12 11 13 9 7 6 6 6 8 11 9 11
Wind_Direction
205 205 209 215 214 211 216 218 218 218 233 304 338 346 352 353 350 346 344 342 341 337 338 331 331 331 328 325 322 320 313 310 298 303 304 313 310 313 316 314 312 311 310
208 204 215 220 217 217 220 218 212 217 209 223 271 325 334 339 339 336 335 336 333 334 333 331 329 331 325 328 326 320 313 314 305 305 312 312 309 315 309 310 310 311 316
201 205 216 226 223 227 220 215 212 208 213 225 226 283 310 326 324 323 315 323 322 322 325 328 327 328 324 327 322 315 317 312 310 302 306 308 310 314 312 307 311 311 310
194 201 231 228 225 228 217 209 210 206 207 212 218 241 264 302 312 305 313 313 312 320 322 323 320 321 322 320 315 319 315 310 308 305 307 312 313 316 306 312 313 312 314
190 216 245 250 234 228 211 209 207 207 214 211 211 230 244 278 279 283 292 295 306 312 316 315 314 312 307 306 315 311 307 306 309 316 307 308 311 318 314 316 304 312 308
195 239 262 251 237 224 214 212 208 212 211 209 220 223 230 256 279 294 297 293 301 305 311 311 307 304 306 311 308 307 305 320 314 309 306 304 304 307 306 308 307 312 312
212 250 260 248 246 238 224 218 219 213 202 215 217 213 242 263 282 290 298 293 288 291 295 298 303 305 299 300 294 295 315 312 312 307 302 299 303 303 304 305 304 297 291
237 266 261 256 253 253 227 227 225 202 210 205 204 212 242 262 283 294 295 292 277 276 276 278 284 289 289 295 292 319 314 311 310 308 300 295 295 303 301 296 292 292 286
273 290 297 294 269 251 238 232 218 200 200 197 205 209 230 263 288 292 299 285 282 267 267 270 270 274 280 301 324 318 313 309 306 305 307 310 304 301 300 299 290 299 295
328 300 295 284 266 259 249 228 202 196 207 199 217 220 226 256 283 288 288 277 279 272 256 258 269 280 307 313 328 325 318 309 312 322 316 310 304 297 301 294 292 293 297
310 295 290 280 269 262 248 206 200 197 185 202 224 239 256 246 272 282 282 274 263 274 266 258 255 284 301 322 327 329 300 318 327 312 305 306 309 306 304 298 292 287 285
304 301 295 290 286 271 229 214 205 181 199 219 239 264 248 250 248 265 275 278 283 287 288 283 269 285 309 321 327 314 319 331 307 308 308 309 310 311 309 304 296 285 273
316 302 297 294 291 265 228 212 202 194 211 229 239 257 271 268 263 276 284 285 279 282 280 275 309 317 319 323 316 320 328 309 310 309 308 303 306 304 302 302 300 298 291
313 308 306 304 303 277 262 223 211 204 218 236 242 251 255 263 263 266 264 268 274 280 273 299 294 312 313 317 318 319 312 306 301 299 301 302 303 307 307 308 310 315 307
321 312 306 305 297 291 253 235 238 224 218 223 235 240 245 252 242 242 242 241 238 251 274 52 305 319 323 315 309 303 302 301 298 301 306 308 308 310 309 313 310 310 307
327 324 320 314 305 287 276 276 257 252 247 249 254 241 226 245 260 266 283 279 283 291 87 277 300 305 294 297 299 301 301 297 301 307 306 307 309 310 311 314 310 311 311
322 317 315 311 303 293 279 267 281 286 270 268 271 272 272 273 273 277 282 278 287 297 247 282 287 287 289 290 292 291 296 298 303 296 302 307 307 306 313 313 314 314 313
306 299 301 302 299 294 279 272 262 267 279 283 281 277 276 272 272 273 277 286 329 321 247 263 269 271 276 277 284 287 292 296 298 299 303 303 304 305 310 312 313 315 314
307 302 298 293 286 278 278 268 259 256 252 261 272 281 272 270 277 276 273 269 236 254 272 266 256 252 260 270 277 278 279 285 291 294 296 298 304 307 306 309 310 313 314
294 289 293 293 291 285 277 271 267 255 256 254 250 246 242 203 235 241 246 243 239 246 255 255 264 258 255 260 273 272 280 284 286 287 291 297 302 303 303 309 312 313 314
296 293 280 283 282 277 270 266 268 268 264 261 257 244 238 226 240 232 229 225 232 243 250 241 250 257 260 256 261 272 269 278 280 283 288 294 302 303 305 304 307 309 309
286 287 285 281 282 279 273 269 268 261 261 263 268 260 270 270 257 238 244 242 243 230 241 245 255 251 248 250 262 267 268 274 280 279 284 289 296 298 302 307 311 313 314
296 294 292 288 280 281 280 272 266 262 261 257 258 257 244 249 254 257 254 257 248 247 243 233 248 263 248 241 242 245 259 266 272 278 284 289 292 295 302 306 312 315 319
280 282 285 288 286 282 279 277 274 271 264 264 259 250 245 246 247 244 248 251 243 252 248 244 245 251 265 259 250 246 245 255 260 261 254 267 281 292 297 302 307 311 313
282 278 278 281 282 281 283 278 276 273 270 265 260 253 249 246 249 248 248 244 245 245 255 240 246 253 258 258 260 261 254 266 263 261 255 240 257 276 284 293 305 310 313
285 284 281 285 285 282 275 276 276 275 272 266 260 256 254 250 251 252 250 244 253 251 253 249 249 258 263 265 262 265 262 266 265 254 248 241 250 270 284 299 308 310 314